Hourly Data Report for October 23, 2014

All times are specified in Local Standard Time (LST). Add 1 hour to adjust for Daylight Saving Time where and when it is observed.

POND INLET A
NUNAVUT

72°41'22.000" N
77°58'08.000" W
61.60 m
2403206
71095
YIO

Download Data

Hourly Data (October 2014)
Hourly Data Report for October 23, 2014
Temp Definition
°C
Dew Point Temp Definition
°C
Rel Hum Definition
%
Wind Dir Definition
10's deg

Wind Spd Definition
km/h
Visibility Definition
km
Stn Press Definition
kPa
Hmdx Definition


Wind Chill Definition


Weather Definition


TIME
00:00 Legend Double Dagger -15.5 -20.2 68 26 43 16.1 99.88   -28 LegendNANA
01:00 Legend Double Dagger -15.6 -19.7 71 26 54 9.7 99.88   -30 Haze
02:00 Legend Double Dagger -15.4 -18.9 75 27 39 16.1 99.96   -28 LegendNANA
03:00 Legend Double Dagger -15.7 -19.9 71 27 39 16.1 99.99   -28 LegendNANA
04:00 Legend Double Dagger -15.1 -19.5 70 27 37 16.1 100.00   -27 LegendNANA
05:00 Legend Double Dagger -14.8 -18.6 73 25 41 16.1 100.01   -27 LegendNANA
06:00 Legend Double Dagger -14.1 -18.0 73 25 45 16.1 99.98   -27 LegendNANA
07:00 Legend Double Dagger -13.8 -18.0 71 25 41 16.1 99.98   -26 LegendNANA
08:00 Legend Double Dagger -13.3 -17.4 72 26 35 16.1 99.97   -25 LegendNANA
09:00 Legend Double Dagger -12.7 -17.2 69 26 37 16.1 99.95   -24 LegendNANA
10:00 Legend Double Dagger -13.3 -16.9 75 28 34 9.7 100.00   -24 Haze
11:00 Legend Double Dagger -13.6 -17.2 75 26 50 8.1 99.95   -27 Snow
12:00 Legend Double Dagger -13.3 -16.7 76 26 52 16.1 99.97   -26 LegendNANA
13:00 Legend Double Dagger -13.2 -16.7 75 25 43 16.1 100.00   -25 LegendNANA
14:00 Legend Double Dagger -12.8 -15.4 81 23 37 16.1 100.05   -24 LegendNANA
15:00 Legend Double Dagger -11.9 -16.7 68 23 21 16.1 100.04   -20 LegendNANA
16:00 Legend Double Dagger -12.2 -16.6 70 22 13 16.1 100.10   -19 LegendNANA
17:00 Legend Double Dagger -11.0 -14.4 77 23 30 16.1 100.11   -21 LegendNANA
18:00 Legend Double Dagger -10.5 -15.0 70 24 22 16.1 100.15   -19 LegendNANA
19:00 Legend Double Dagger -12.2 -15.0 80 21 34 16.1 100.20   -23 LegendNANA
20:00 Legend Double Dagger -11.0 -14.3 77 22 37 16.1 100.24   -22 LegendNANA
21:00 Legend Double Dagger -11.2 -14.0 80 23 35 16.1 100.30   -22 LegendNANA
22:00 Legend Double Dagger -10.8 -13.9 78 25 50 16.1 100.33   -23 LegendNANA
23:00 Legend Double Dagger -11.1 -14.6 76 24 46 16.1 100.38   -23 LegendNANA

Notes on Data Quality.

Legend

  • E = Estimated
  • M = Missing
  • NA = Not Available
  • ‡ = Partner data that is not subject to review by the National Climate Archives
Date modified: